Weather History for Oxford, MS

Change the Weather History Date:

Thursday, April 25, 2013

  Actual Average Record
Temperature  
Mean Temperature 50 °F -  
Max Temperature 68 °F 73 °F 88 °F (1965)
Min Temperature 32 °F 49 °F 30 °F (1983)
Degree Days  
Heating Degree Days 15    
Moisture  
Dew Point 36 °F    
Average Humidity 67    
Maximum Humidity 100    
Minimum Humidity 26    
Precipitation  
Precipitation 0.00 in - - ()
Sea Level Pressure  
Sea Level Pressure 30.35 in    
Wind  
Wind Speed 2 mph (ENE)    
Max Wind Speed 10 mph    
Max Gust Speed 16 mph    
Visibility 8 miles    
Events      
Averages and records for this station are not official NWS values.
T = Trace of Precipitation, MM = Missing Value Source: NWS Daily Summary

Daily Weather History Graph

Daily Weather History Graph

Search for Another Location

Airport:

Trip Planner

Search our weather history database for the weather conditions in past years. The results will help you decide how hot, cold, wet, or windy it might be!

Date:

Astronomy

Apr. 25, 2013 Rise Set
Actual Time 6:14 AM CDT 7:38 PM CDT
Civil Twilight 5:48 AM CDT 8:04 PM CDT
Nautical Twilight 5:16 AM CDT 8:36 PM CDT
Astronomical Twilight 4:43 AM CDT 9:09 PM CDT
Moon 7:49 PM CDT 5:57 AM CDT
Length of Visible Light 14h 16m
Length of Day
13h 23m
Full, 100% of the Moon is Illuminated
Apr 25
Full
Apr 25
Full
May 2
Last Quarter
May 9
New
May 17
First Quarter

Hourly Weather History & Observations

Time (CDT) Temp. Dew Point Humidity Pressure Visibility Wind Dir Wind Speed Gust Speed Precip Events Conditions
12:15 AM 39.2 °F 37.4 °F 93% 30.32 in 7.0 mi Calm Calm - N/A   Clear
12:35 AM 37.4 °F 35.6 °F 93% 30.31 in 7.0 mi Calm Calm - N/A   Clear
12:55 AM 37.4 °F 35.6 °F 93% 30.31 in 7.0 mi Calm Calm - N/A   Clear
1:15 AM 37.4 °F 35.6 °F 93% 30.30 in 8.0 mi Calm Calm - N/A   Clear
1:35 AM 35.6 °F 35.6 °F 100% 30.31 in 7.0 mi Calm Calm - N/A   Clear
1:55 AM 35.6 °F 33.8 °F 93% 30.30 in 5.0 mi Calm Calm - N/A   Clear
2:15 AM 35.6 °F 33.8 °F 93% 30.31 in 5.0 mi Calm Calm - N/A   Clear
2:35 AM 33.8 °F 32.0 °F 93% 30.31 in 5.0 mi Calm Calm - N/A   Clear
2:55 AM 35.6 °F 32.0 °F 87% 30.32 in 7.0 mi Calm Calm - N/A   Clear
3:15 AM 33.8 °F 32.0 °F 93% 30.32 in 5.0 mi Calm Calm - N/A   Clear
3:35 AM 33.8 °F 32.0 °F 93% 30.32 in 5.0 mi Calm Calm - N/A   Clear
3:55 AM 33.8 °F 32.0 °F 93% 30.32 in 7.0 mi Calm Calm - N/A   Clear
4:15 AM 32.0 °F 32.0 °F 100% 30.32 in 7.0 mi Calm Calm - N/A   Clear
4:35 AM 32.0 °F 32.0 °F 100% 30.33 in 5.0 mi Calm Calm - N/A   Clear
4:55 AM 32.0 °F 32.0 °F 100% 30.34 in 5.0 mi Calm Calm - N/A   Clear
5:15 AM 32.0 °F 32.0 °F 100% 30.34 in 5.0 mi Calm Calm - N/A   Clear
5:35 AM 32.0 °F 32.0 °F 100% 30.35 in 5.0 mi Calm Calm - N/A   Clear
5:55 AM 32.0 °F 32.0 °F 100% 30.34 in 4.0 mi Calm Calm - N/A   Clear
6:15 AM 32.0 °F 32.0 °F 100% 30.35 in 3.0 mi Calm Calm - N/A   Clear
6:35 AM 32.0 °F 32.0 °F 100% 30.35 in 4.0 mi Calm Calm - N/A   Clear
6:55 AM 32.0 °F 32.0 °F 100% 30.36 in 5.0 mi Calm Calm - N/A   Clear
7:15 AM 35.6 °F 33.8 °F 93% 30.37 in 7.0 mi Calm Calm - N/A   Clear
7:35 AM 37.4 °F 37.4 °F 100% 30.38 in 7.0 mi Calm Calm - N/A   Clear
7:55 AM 41.0 °F 39.2 °F 93% 30.39 in 7.0 mi Calm Calm - N/A   Clear
8:15 AM 44.6 °F 39.2 °F 81% 30.40 in 7.0 mi Calm Calm - N/A   Clear
8:35 AM 46.4 °F 39.2 °F 76% 30.40 in 8.0 mi Calm Calm - N/A   Clear
8:55 AM 48.2 °F 39.2 °F 71% 30.40 in 7.0 mi ESE 3.5 mph - N/A   Clear
9:15 AM 48.2 °F 37.4 °F 66% 30.40 in 8.0 mi East 4.6 mph - N/A   Clear
9:35 AM 50.0 °F 37.4 °F 62% 30.41 in 8.0 mi East 6.9 mph - N/A   Clear
9:55 AM 51.8 °F 39.2 °F 62% 30.41 in 8.0 mi East 3.5 mph - N/A   Clear
10:15 AM 53.6 °F 37.4 °F 54% 30.41 in 8.0 mi ENE 9.2 mph - N/A   Clear
10:35 AM 53.6 °F 35.6 °F 51% 30.41 in 8.0 mi ENE 3.5 mph - N/A   Clear
10:55 AM 55.4 °F 35.6 °F 47% 30.41 in 8.0 mi NE 8.1 mph - N/A   Clear
11:15 AM 55.4 °F 35.6 °F 47% 30.41 in 7.0 mi NE 6.9 mph - N/A   Clear
11:35 AM 57.2 °F 35.6 °F 44% 30.41 in 8.0 mi ENE 8.1 mph - N/A   Clear
11:55 AM 57.2 °F 35.6 °F 44% 30.41 in 9.0 mi NNE 4.6 mph 16.1 mph N/A   Clear
12:15 PM 59.0 °F 37.4 °F 45% 30.41 in 9.0 mi NE 6.9 mph - N/A   Clear
12:35 PM 59.0 °F 35.6 °F 42% 30.40 in 10.0 mi ENE 5.8 mph - N/A   Clear
12:55 PM 59.0 °F 35.6 °F 42% 30.39 in 8.0 mi NNE 5.8 mph - N/A   Clear
1:15 PM 60.8 °F 35.6 °F 39% 30.38 in 9.0 mi NNE 4.6 mph - N/A   Clear
1:35 PM 62.6 °F 35.6 °F 37% 30.38 in 8.0 mi NE 6.9 mph - N/A   Clear
1:55 PM 62.6 °F 33.8 °F 34% 30.38 in 9.0 mi ENE 9.2 mph - N/A   Clear
2:15 PM 64.4 °F 35.6 °F 34% 30.37 in 10.0 mi SE 3.5 mph - N/A   Clear
2:35 PM 64.4 °F 35.6 °F 34% 30.37 in 9.0 mi East 3.5 mph - N/A   Clear
2:55 PM 64.4 °F 35.6 °F 34% 30.36 in 9.0 mi NE 4.6 mph - N/A   Clear
3:15 PM 66.2 °F 35.6 °F 32% 30.35 in 8.0 mi East 5.8 mph - N/A   Clear
3:35 PM 66.2 °F 33.8 °F 30% 30.34 in 9.0 mi NE 5.8 mph - N/A   Clear
3:55 PM 66.2 °F 33.8 °F 30% 30.33 in 9.0 mi East 8.1 mph - N/A   Clear
4:15 PM 66.2 °F 32.0 °F 28% 30.33 in 9.0 mi NE 6.9 mph - N/A   Clear
4:35 PM 66.2 °F 32.0 °F 28% 30.32 in 9.0 mi ENE 10.4 mph - N/A   Clear
4:55 PM 68.0 °F 32.0 °F 26% 30.32 in 8.0 mi East 8.1 mph - N/A   Clear
5:15 PM 66.2 °F 32.0 °F 28% 30.32 in 10.0 mi ENE 6.9 mph - N/A   Clear
5:35 PM 66.2 °F 32.0 °F 28% 30.32 in 8.0 mi NE 5.8 mph - N/A   Clear
5:55 PM 66.2 °F 32.0 °F 28% 30.32 in 9.0 mi East 6.9 mph - N/A   Clear
6:15 PM 66.2 °F 32.0 °F 28% 30.32 in 9.0 mi East 3.5 mph - N/A   Clear
6:35 PM 66.2 °F 32.0 °F 28% 30.32 in 8.0 mi East 4.6 mph - N/A   Clear
6:55 PM 64.4 °F 33.8 °F 32% 30.33 in 8.0 mi Calm Calm - N/A   Clear
7:15 PM 62.6 °F 37.4 °F 39% 30.33 in 9.0 mi Calm Calm - N/A   Clear
7:35 PM 57.2 °F 39.2 °F 51% 30.33 in 9.0 mi Calm Calm - N/A   Clear
7:55 PM 55.4 °F 42.8 °F 63% 30.33 in 9.0 mi Calm Calm - N/A   Clear
8:15 PM 53.6 °F 44.6 °F 72% 30.32 in 10.0 mi Calm Calm - N/A   Clear
8:35 PM 50.0 °F 42.8 °F 76% 30.32 in 10.0 mi Calm Calm - N/A   Clear
8:55 PM 50.0 °F 42.8 °F 76% 30.33 in 10.0 mi Calm Calm - N/A   Clear
9:15 PM 48.2 °F 42.8 °F 82% 30.34 in 10.0 mi Calm Calm - N/A   Clear
9:35 PM 48.2 °F 42.8 °F 82% 30.35 in 10.0 mi Calm Calm - N/A   Clear
9:55 PM 46.4 °F 42.8 °F 87% 30.35 in 10.0 mi Calm Calm - N/A   Clear
10:15 PM 46.4 °F 41.0 °F 81% 30.35 in 10.0 mi Calm Calm - N/A   Clear
10:35 PM 46.4 °F 41.0 °F 81% 30.35 in 9.0 mi Calm Calm - N/A   Clear
10:55 PM 46.4 °F 41.0 °F 81% 30.35 in 10.0 mi Calm Calm - N/A   Clear
11:15 PM 44.6 °F 41.0 °F 87% 30.34 in 10.0 mi Calm Calm - N/A   Clear
11:35 PM 44.6 °F 41.0 °F 87% 30.34 in 10.0 mi Calm Calm - N/A   Clear
11:55 PM 44.6 °F 39.2 °F 81% 30.33 in 10.0 mi Calm Calm - N/A   Clear